Probability
0 0 0 0 0 0 0 0 0 0 0 0 0 0 0 0 0 0 0 0 0 0 0 0 0 0 0 0 0 0 0 0 0 0 0 0 0 0 0 0 0 0 0
0 0 0 0 0 0 0 0 0 0 0 0 0 0 0 0 0 0 0 0 0 0 0 0 0 0 0 0 0 0 0 0 0 0 0 0 0 0 0 0 0 0 0
0 0 0 0 0 0 0 0 0 0 0 0 0 0 0 0 0 0 0 0 0 0 0 0 0 0 0 0 0 0 0 0 0 0 0 0 0 0 0 0 0 0 0
0 0 0 0 0 0 0 0 0 0 0 0 0 0 0 0 0 0 0 0 0 0 0 0 0 0 0 0 0 0 0 0 0 0 0 0 0 0 0 0 0 0 0
1 2 2 1 0 0 0 0 0 0 0 0 0 0 0 0 0 0 0 0 0 0 0 0 0 0 0 0 0 0 0 0 0 0 0 0 0 0 0 0 0 0 0
3 5 6 5 2 0 0 0 0 0 0 0 0 0 0 0 0 0 0 0 0 0 0 0 0 0 0 0 0 0 0 0 0 0 0 0 0 0 0 0 0 0 0
6 6 8 8 5 2 1 0 0 0 0 0 0 0 0 0 0 0 0 0 0 0 0 0 0 0 0 0 0 0 0 0 0 0 0 0 0 0 0 0 0 0 0
12 10 8 8 7 4 2 1 0 0 0 0 0 0 0 0 0 0 0 0 0 0 0 0 0 0 0 0 0 0 0 0 0 0 0 0 0 0 0 0 0 0 0
24 19 12 8 6 4 3 1 0 0 0 0 0 0 0 0 0 0 0 0 0 0 0 0 0 0 0 0 0 0 0 0 0 0 0 0 0 0 0 0 0 0 0
40 33 21 13 8 5 2 1 0 0 0 0 0 0 0 0 0 0 0 0 0 0 0 0 0 0 0 0 0 0 0 0 0 0 0 0 0 0 0 0 0 0 0
55 46 33 22 14 8 4 3 1 0 0 0 0 0 0 0 0 0 0 0 0 0 0 0 0 0 0 0 0 0 0 0 0 0 0 0 0 0 0 0 0 0 0
62 54 42 31 22 14 9 6 4 2 0 0 0 0 0 0 0 0 0 0 0 0 0 0 0 0 0 0 0 0 0 0 0 0 0 0 0 0 0 0 0 0 0
51 50 46 39 30 21 14 9 6 4 1 0 0 0 0 0 0 0 0 0 0 0 0 0 0 0 0 0 0 0 0 0 0 0 0 0 0 0 0 0 0 0 0
32 36 41 41 33 24 18 12 7 5 2 0 0 0 0 0 0 0 0 0 0 0 0 0 0 0 0 0 0 0 0 0 0 0 0 0 0 0 0 0 0 0 0
18 23 31 35 33 26 19 12 7 4 2 1 0 0 0 0 0 0 0 0 0 0 0 0 0 0 0 0 0 0 0 0 0 0 0 0 0 0 0 0 0 0 0
10 14 19 27 29 23 16 11 7 4 2 1 0 0 0 0 0 0 0 0 0 0 0 0 0 0 0 0 0 0 0 0 0 0 0 0 0 0 0 0 0 0 0
6 7 9 15 20 16 11 7 4 2 1 0 0 0 0 0 0 0 0 0 0 0 0 0 0 0 0 0 0 0 0 0 0 0 0 0 0 0 0 0 0 0 0
3 3 3 5 7 7 5 3 2 1 0 0 0 0 0 0 0 0 0 0 0 0 0 0 0 0 0 0 0 0 0 0 0 0 0 0 0 0 0 0 0 0 0
1 1 0 0 1 1 1 1 0 0 0 0 0 0 0 0 0 0 0 0 0 0 0 0 0 0 0 0 0 0 0 0 0 0 0 0 0 0 0 0 0 0 0
0 0 0 0 0 0 0 0 0 0 0 0 0 0 0 0 0 0 0 0 0 0 0 0 0 0 0 0 0 0 0 0 0 0 0 0 0 0 0 0 0 0 0
0 0 0 0 0 0 0 0 0 0 0 0 0 0 0 0 0 0 0 0 0 0 0 0 0 0 0 0 0 0 0 0 0 0 0 0 0 0 0 0 0 0 0
0 0 0 0 0 0 0 0 0 0 0 0 0 0 0 0 0 0 0 0 0 0 0 0 0 0 0 0 0 0 0 0 0 0 0 0 0 0 0 0 0 0 0
0 0 0 0 0 0 0 0 0 0 0 0 0 0 0 0 0 0 0 0 0 0 0 0 0 0 0 0 0 0 0 0 0 0 0 0 0 0 0 0 0 0 0
0 0 0 0 0 0 0 0 0 0 0 0 0 0 0 0 0 0 0 0 0 0 0 0 0 0 0 0 0 0 0 0 0 0 0 0 0 0 0 0 0 0 0
0 0 0 0 0 0 0 0 0 0 0 0 0 0 0 0 0 0 0 0 0 0 0 0 0 0 0 0 0 0 0 0 0 0 0 0 0 0 0 0 0 0 0
0 0 0 0 0 0 0 0 0 0 0 0 0 0 0 0 0 0 0 0 0 0 0 0 0 0 0 0 0 0 0 0 0 0 0 0 0 0 0 0 0 0 0
Wind_Speed
8 8 6 6 7 6 7 6 6 6 6 5 5 5 6 6 5 5 5 7 8 8 7 6 5 5 5 6 6 6 6 7 7 7 7 8 8 8 8 8 9 9 9
9 8 8 8 8 7 7 7 7 6 5 5 6 6 6 6 6 6 5 7 7 7 7 6 6 5 5 5 5 5 5 6 6 6 6 6 7 7 7 7 8 8 8
11 10 9 9 9 8 9 7 8 6 5 5 6 6 5 6 6 7 6 5 7 7 7 7 6 5 4 4 4 4 4 4 4 4 5 5 5 6 6 6 7 8 8
14 11 10 10 10 9 8 8 7 7 6 6 6 5 5 5 8 7 7 6 6 6 7 8 7 6 5 3 3 3 3 3 3 3 4 4 5 5 6 7 7 8 9
16 13 11 10 11 9 9 9 8 8 8 7 6 5 5 6 7 7 8 8 7 6 6 8 7 6 5 4 2 1 2 2 3 4 4 5 5 6 7 8 8 9 10
16 14 11 13 12 10 10 10 11 9 7 7 6 5 5 6 6 7 9 8 7 8 8 8 7 6 6 5 2 0 2 4 5 6 6 7 7 8 9 10 11 11 12
15 14 12 13 13 12 13 14 11 11 8 7 6 5 5 7 8 7 8 8 9 9 9 9 7 6 6 7 4 2 3 5 6 7 8 8 10 11 12 12 13 14 14
15 13 16 13 13 12 15 15 14 10 8 9 8 5 6 7 8 9 9 9 10 9 10 10 9 8 6 5 4 3 2 4 6 7 9 10 11 12 13 14 15 16 16
16 15 16 15 13 13 13 16 16 16 11 11 10 8 7 8 6 7 10 9 10 9 9 9 9 8 7 5 5 6 3 2 5 7 9 10 12 14 15 16 17 18 18
16 16 16 16 14 13 14 15 16 15 14 11 9 10 7 4 5 6 6 8 10 10 10 7 8 8 7 5 4 4 3 2 4 7 9 11 13 15 17 18 19 20 20
15 15 16 15 14 13 15 15 15 16 14 14 10 8 9 5 6 5 5 6 7 7 7 8 6 7 7 6 5 5 4 2 4 7 10 13 15 17 18 20 20 20 21
11 15 15 14 14 13 14 15 14 17 15 15 12 9 8 8 9 8 6 5 5 5 6 5 5 5 5 5 5 5 4 2 5 9 13 15 17 18 19 20 20 21 21
10 13 13 14 13 13 13 13 13 14 15 15 13 10 8 7 4 6 5 4 4 3 4 4 4 4 5 4 5 6 4 4 8 11 15 17 18 18 19 20 21 21 21
10 11 12 13 13 13 11 10 9 10 9 11 10 8 5 4 3 3 4 5 4 3 3 4 2 3 3 3 3 3 4 6 10 13 16 17 18 19 20 20 21 21 22
8 10 10 11 11 10 10 9 7 8 7 7 7 6 4 3 3 2 2 3 5 5 5 4 2 2 2 2 3 4 5 8 12 15 17 18 19 19 20 21 21 22 22
8 8 8 8 8 8 8 8 7 7 8 7 6 8 7 5 5 4 4 4 3 3 3 3 2 2 3 3 5 6 7 12 15 16 17 18 19 20 21 21 22 22 22
5 5 5 5 5 6 7 8 8 9 9 8 8 9 9 8 6 5 5 4 4 3 3 2 2 2 3 4 5 6 7 8 9 14 16 18 20 20 21 21 21 22 22
4 2 1 1 3 5 7 8 9 10 10 10 10 10 10 8 8 6 5 5 4 3 3 3 2 3 5 5 7 8 7 7 8 13 17 19 20 20 20 20 20 21 21
6 5 4 4 5 6 6 7 9 9 10 10 10 10 10 9 8 5 5 4 3 3 2 2 2 3 4 5 7 8 9 8 9 11 15 17 18 19 19 20 21 21 22
9 9 8 8 8 8 8 9 10 11 11 10 9 9 8 7 7 6 4 4 3 3 3 3 3 4 4 5 6 6 7 7 8 8 11 13 16 18 19 20 21 22 22
11 10 11 10 10 9 8 10 10 11 12 11 10 9 8 8 8 5 3 3 3 2 2 3 4 4 5 5 5 6 7 8 9 9 8 8 9 9 11 15 18 20 21
11 11 11 10 10 9 15 16 12 10 10 10 9 8 7 7 6 5 3 2 3 3 3 4 5 6 7 7 6 6 8 9 8 6 8 10 10 11 11 11 16 21 22
11 11 11 11 12 14 19 18 17 11 10 9 8 6 5 4 4 1 0 2 3 4 6 6 7 8 7 7 7 9 9 10 11 10 11 12 11 12 11 12 20 23 24
10 10 11 11 12 14 18 18 16 10 9 7 6 5 4 3 1 1 2 3 4 4 5 5 7 7 7 8 8 9 10 11 12 10 10 12 11 12 11 11 18 22 24
10 9 9 10 10 11 14 13 10 6 6 6 5 3 2 1 1 4 3 4 5 5 5 8 10 11 13 14 12 8 8 8 10 10 8 8 9 10 11 12 13 19 20
8 8 9 8 8 8 10 9 6 4 4 3 3 2 2 3 4 5 4 4 5 6 6 7 8 9 9 9 10 8 7 7 7 7 5 5 7 8 8 8 8 9 12
Wind_Direction
205 202 205 201 205 202 196 203 205 193 194 191 194 198 195 197 190 179 139 135 139 144 143 140 132 120 107 97 87 75 65 56 51 45 41 39 36 32 31 29 26 21 16
212 209 211 208 208 206 206 207 208 200 199 198 196 202 203 197 197 190 166 145 138 147 155 156 146 133 118 105 92 79 64 52 44 36 32 29 25 22 19 17 14 8 3
216 213 217 211 210 208 206 209 206 206 201 198 201 202 203 204 200 194 188 175 159 150 165 166 158 147 133 114 96 81 66 49 34 22 16 12 9 3 358 357 355 351 347
217 216 218 216 210 204 202 201 198 200 199 202 202 195 200 201 208 201 192 191 184 174 170 170 169 160 151 132 104 79 61 38 12 351 343 340 338 335 331 331 333 332 330
218 217 219 216 209 205 204 201 203 205 204 202 202 197 202 201 204 203 205 197 193 192 182 160 161 159 164 159 140 80 29 358 335 319 311 309 309 310 310 310 311 312 313
220 220 219 217 209 206 206 203 201 204 209 194 190 199 208 208 209 208 208 200 195 196 199 183 178 167 173 175 173 228 316 316 311 305 300 297 297 297 298 299 301 301 302
222 220 221 217 210 209 208 206 200 200 199 183 180 197 211 219 219 211 211 207 200 199 200 198 202 191 180 178 184 221 283 295 298 298 297 295 293 293 294 294 295 295 296
225 219 221 219 212 213 211 207 201 200 192 188 194 195 211 207 216 215 211 212 208 199 205 205 204 202 200 195 160 188 253 287 296 297 297 298 297 296 295 295 294 294 294
225 221 222 223 216 214 214 209 203 203 198 198 204 200 206 218 183 192 212 210 209 205 206 204 205 201 201 201 185 174 190 269 292 297 301 303 303 302 300 299 298 297 295
226 224 223 224 221 217 218 213 209 211 207 198 207 227 241 252 189 177 193 211 212 212 208 198 199 193 193 191 174 155 173 238 281 297 303 304 304 301 299 297 296 296 296
229 224 222 223 223 220 221 218 212 213 213 206 197 197 212 225 237 212 188 183 201 211 207 199 192 187 184 185 185 165 173 236 292 301 302 301 300 299 298 297 297 296 296
235 228 223 223 223 222 221 221 215 215 216 217 208 200 196 197 205 213 211 178 185 182 191 192 192 184 178 180 175 158 182 247 297 301 301 300 300 299 298 297 296 295 294
241 233 224 225 224 224 223 221 218 216 217 219 216 211 215 218 199 200 199 166 152 137 172 193 194 181 172 175 162 173 208 273 298 301 301 300 301 301 299 297 294 292 291
253 246 234 228 227 224 220 216 216 215 212 216 219 212 202 201 186 186 172 153 144 144 169 166 161 180 167 167 153 218 254 278 295 299 299 300 300 299 295 292 290 289 289
266 258 245 233 226 220 211 202 205 202 197 198 191 176 159 139 124 109 110 142 153 167 182 160 157 160 157 184 208 252 274 280 290 292 294 295 294 292 291 290 288 287 286
270 263 253 240 223 211 197 187 183 180 177 171 159 154 143 134 119 107 102 84 86 131 154 153 167 162 184 207 234 261 270 278 279 283 286 289 289 290 288 286 285 284 283
289 271 255 232 207 189 178 170 167 163 161 153 149 146 136 129 119 108 102 98 94 104 140 145 162 172 204 237 254 257 263 270 274 278 283 287 289 287 285 284 284 283 283
346 337 320 162 152 154 156 156 153 151 149 146 141 135 130 124 116 114 113 111 111 107 133 164 176 193 223 245 261 270 272 272 275 281 285 287 287 286 285 284 283 282 281
33 42 59 85 99 111 121 128 131 130 128 129 131 130 130 128 123 121 118 117 116 120 131 177 214 220 237 250 268 272 273 274 276 279 284 285 286 285 285 283 282 282 283
50 54 60 68 77 86 95 103 109 110 109 107 107 110 114 118 121 123 120 123 133 155 182 217 241 249 254 259 268 278 284 285 286 285 283 283 283 283 282 281 281 282 282
57 61 66 68 72 77 87 95 97 101 102 98 92 90 93 104 115 119 128 147 169 199 222 243 257 265 266 271 276 287 290 295 291 288 285 284 285 281 282 280 278 276 277
63 66 68 72 74 82 93 93 93 91 92 94 92 88 90 90 98 102 122 185 217 237 248 256 266 270 278 284 290 292 294 296 297 290 293 291 288 285 283 279 280 282 281
67 71 72 74 77 83 87 88 88 85 84 85 90 95 98 98 91 93 167 257 258 271 272 276 276 279 288 294 296 292 287 287 285 290 293 288 287 284 283 280 282 281 281
62 65 67 73 76 78 82 85 86 83 85 89 93 100 109 118 115 268 260 265 266 263 271 274 278 284 286 288 284 281 282 284 282 280 277 282 286 285 288 285 284 282 282
66 64 65 72 79 84 87 91 92 94 98 100 101 95 74 37 313 285 278 276 284 282 271 276 284 285 287 287 288 287 283 283 286 289 288 281 285 294 291 284 281 281 280
76 76 72 71 83 94 98 96 92 94 98 99 94 72 28 340 323 315 305 289 291 301 301 292 284 279 279 280 278 269 269 273 280 287 282 278 290 306 296 280 281 285 284